Location: Arrodets-la-Barthe
(43.0306°N, 0.2829°E)
Time: 01:35:20
(UTC+00:00)

DUCHIFAT 1 - Pass Details

Date: 08 April 2023
Orbit: 567 x 581 km, 98.1° (Epoch: 29 May)

Event Time Altitude Azimuth Distance (km) Brightness Sun altitude
Rises 03:32:23 0° 9° (N) 2,784 ? -20.7°
Reaches altitude 10° 03:34:33 10° 6° (N) 1,879 ? -20.4°
Maximum altitude 03:38:34 61° 286° (WNW) 647 ? -19.8°
Enters shadow 03:39:12 53° 243° (WSW) 705 ? -19.7°
